User: anonymous   Login
Location: Kuppenheim
(48.8299°N, 8.2568°E)
Time: 22:11:29
(UTC+00:00)
Language:

Cosmos 1242 Rocket - Orbit

View from above orbital plane
View from above orbital plane
View from above satellite
View from above satellite

Ground track
Ground track

The orbit data is extracted from the following two-line orbital elements,

1 12155U 81008B   21265.65404946  .00001991  00000-0  58936-4 0  9990
2 12155  81.1647   7.9389 0028147  44.3197 316.0288 15.33959284199285
Epoch (UTC): 22 September 2021 15:41:49
Eccentricity: 0.0028147
inclination: 81.1647°
perigee height: 445 km
apogee height: 483 km
right ascension of ascending node: 7.9389°
argument of perigee: 44.3197°
revolutions per day: 15.33959284
mean anomaly at epoch: 316.0288°
orbit number at epoch: 19928

The dashed part of the orbit path shows where the satellite is in the earth's shadow,  

DLR